BANXING-2 (41834 NORAD) Tracking and Keplerian Element Data

This shows tracking and keplerian element data for the satellite.

Feedback or suggestion? Click here.




ElementValue
Catalog41834
NameBANXING-2
Epoch Orbit11857
Epoch Day319.64223443
Epoch Year2018
RAAN84.0616
Inclination42.7801
Eccentricity0.0014102
Argument of Perigee325.2622
Mean Anonmoly162.0329
Mean Motion15.85014027
Decay Rate0.00026215
L11 41834U 16057H 18319.64223443 .00026215 00000-0 10912-3 0 9991
L22 41834 42.7801 84.0616 0014102 325.2622 162.0329 15.85014027118577

Live tracking and technical data element details for BANXING-2 (NORAD 41834). BANXING-2 can be tracked NOW for your location showing map with azimuth and elevation plus other details from your city location.

Track the satellite on the map from your city or location and see movement details for azimuth, elevation, latitude, longitude, range, height, and movement on the map or in text.







IsCatalogInMostPopularTable: catalog: 41834, numindb: 119
Update: records affected: 1



GetName: 41834 BANXING-2

Hit Count: updated at: Fri, 16 Nov 2018 06:08:21 GMT